{"data":{"norad_id":63978,"epoch":"2026-05-25T04:04:25.293216Z","epoch_age_seconds":50614,"freshness":"FRESH","line1":"1 63978U 25099AC  26145.16973719  .00017167  00000+0  63165-3 0  9994","line2":"2 63978  42.9990 100.7639 0001453 275.1683  84.9003 15.27592779 58987","mean_motion":15.27592779,"eccentricity":0.0001453,"inclination_deg":42.999,"raan_deg":100.7639,"arg_perigee_deg":275.1683,"mean_anomaly_deg":84.9003,"bstar":0.00063165,"rev_number":5898,"period_min":94.265960129941,"perigee_km":482.01390660328,"apogee_km":484.00775616308,"semimajor_km":6861.1478313832,"source":"CELESTRAK","updated_at":"2026-05-25T13:38:20.216644Z"}}